1512367200.4,43904,3.44,72518.3,-13.61,-22.37,-26.07,0,*68
1512367201.67,43905,3.44,72516.8,-13.61,-23.65,-27.71,0,*6F
1512367202.93,43906,3.44,72542.5,-13.61,-26.03,-30.67,0,*68
1512367204.22,43907,3.44,72534.8,-13.61,-29.39,-31.57,0,*6D
1512367205.46,43908,3.38,72522.8,-13.61,-30.83,-32.23,0,*6B
1512367206.7,43909,3.44,72554.5,-13.59,-31.91,-33.83,0,*68
1512367207.92,43910,3.44,72520.3,-13.59,-34.25,-33.83,0,*6A
1512367209.14,43911,3.44,72528.3,-13.59,-33.37,-33.55,0,*64
1512367210.36,43912,3.38,72518.8,-13.59,-33.83,-35.59,0,*62
1512367211.6,43913,3.44,72516.3,-13.59,-34.83,-35.71,0,*6E
1512367212.85,43914,3.44,72536.0,-13.59,-35.95,-36.73,0,*6E
1512367214.06,43915,3.44,72526.5,-13.59,-36.19,-36.07,0,*6B
1512367215.34,43916,3.44,72534.0,-13.57,-38.35,-38.29,0,*64
1512367216.64,43917,3.44,72538.8,-13.57,-39.53,-37.39,0,*6A
1512367217.9,43918,3.44,72542.3,-13.59,-37.63,-39.03,0,*61
1512367219.16,43919,3.38,72542.5,-13.57,-40.65,-40.29,0,*6E
1512367220.46,43920,3.44,72554.3,-13.57,-41.67,-39.15,0,*66
1512367221.7,43921,3.44,72536.8,-13.59,-38.35,-35.35,0,*6E
1512367222.95,43922,3.44,72540.8,-13.57,-35.89,-32.91,0,*60
1512367224.23,43923,3.44,72522.5,-13.57,-34.41,-31.11,0,*6F
1512367225.53,43924,3.44,72540.8,-13.57,-32.19,-29.51,0,*6E
1512367226.77,43925,3.44,72504.8,-13.57,-30.45,-27.89,0,*6F
1512367228.04,43926,3.44,72486.3,-13.57,-29.79,-27.83,0,*61
1512367229.34,43927,3.44,72522.5,-13.57,-29.17,-26.97,0,*6C
1512367230.6,43928,3.44,72522.0,-13.55,-28.43,-27.83,0,*65
1512367231.87,43929,3.44,72508.8,-13.55,-29.01,-27.99,0,*68
1512367233.14,43930,3.44,72498.0,-13.53,-27.67,-27.61,0,*6F
1512367234.38,43931,3.44,72504.5,-13.55,-26.71,-27.13,0,*6B
1512367235.67,43932,3.44,72510.5,-13.53,-26.13,-26.81,0,*60
1512367236.94,43933,3.44,72526.3,-13.53,-26.13,-27.67,0,*68
1512367238.2,43934,3.44,72532.3,-13.49,-26.23,-27.99,0,*66
1512367239.51,43935,3.44,72542.8,-13.49,-27.61,-30.89,0,*67
1512367240.78,43936,3.44,72578.3,-13.49,-28.85,-31.39,0,*6B
1512367242.05,43937,3.44,72578.5,-13.49,-31.29,-32.85,0,*60
1512367243.3,43938,3.44,72560.3,-13.47,-32.79,-32.91,0,*62
1512367244.56,43939,3.44,72576.0,-13.49,-33.77,-33.03,0,*68
1512367245.79,43940,3.44,72570.3,-13.47,-34.59,-34.77,0,*67
1512367247.03,43941,3.44,72524.8,-13.49,-33.37,-33.21,0,*63
1512367248.32,43942,3.38,72560.3,-13.49,-32.63,-31.11,0,*61
1512367249.59,43943,3.44,72558.3,-13.47,-31.73,-30.51,0,*69
1512367250.83,43944,3.44,72548.5,-13.47,-30.51,-28.53,0,*64
1512367252.1,43945,3.44,72570.3,-13.47,-28.79,-28.47,0,*63
1512367253.32,43946,3.44,72562.3,-13.47,-29.45,-28.37,0,*69
1512367254.59,43947,3.44,72524.5,-13.45,-29.45,-26.77,0,*60
1512367255.85,43948,3.44,72508.3,-13.45,-24.93,-25.55,0,*6A
1512367257.13,43949,3.44,72524.8,-13.45,-25.71,-27.03,0,*67
1512367258.37,43950,3.44,72534.0,-13.45,-27.77,-29.67,0,*67
1512367259.61,43951,3.44,72528.3,-13.45,-31.17,-33.03,0,*6E
1512367260.91,43952,3.44,72552.3,-13.45,-31.95,-32.75,0,*67
1512367262.2,43953,3.44,72540.3,-13.45,-35.35,-37.21,0,*6C
1512367263.41,43954,3.44,72548.5,-13.43,-38.43,-38.05,0,*68
1512367264.68,43955,3.44,72538.5,-13.45,-38.61,-38.23,0,*6B
1512367265.95,43956,3.44,72548.8,-13.43,-39.03,-36.49,0,*69
1512367267.21,43957,3.44,72534.5,-13.45,-35.35,-34.47,0,*6B
1512367268.45,43958,3.44,72512.0,-13.43,-35.71,-36.49,0,*6E
1512367269.69,43959,3.44,72524.3,-13.43,-36.55,-36.49,0,*6A
1512367270.93,43960,3.44,72508.0,-13.43,-36.31,-36.13,0,*6D
1512367272.18,43961,3.44,72490.8,-13.43,-35.95,-35.89,0,*61
1512367273.43,43962,3.44,72512.0,-13.43,-36.49,-36.55,0,*62
1512367274.67,43963,3.44,72524.8,-13.43,-39.15,-38.73,0,*6F
1512367275.91,43964,3.44,72518.8,-13.43,-38.17,-37.39,0,*6A
1512367277.15,43965,3.44,72524.0,-13.43,-38.17,-37.39,0,*6B
1512367278.4,43966,3.44,72536.3,-13.43,-37.87,-37.21,0,*67
1512367279.64,43967,3.44,72550.5,-13.43,-37.81,-37.27,0,*66
1512367280.87,43968,3.44,72528.8,-13.43,-37.03,-35.89,0,*65
1512367282.13,43969,3.44,72504.5,-13.43,-35.53,-34.65,0,*60
1512367283.37,43970,3.44,72480.3,-13.43,-32.07,-31.17,0,*6E
1512367284.67,43971,3.44,72456.0,-13.41,-29.35,-29.17,0,*6F
1512367285.94,43972,3.44,72494.0,-13.41,-29.07,-29.17,0,*6D
1512367287.21,43973,3.44,72496.5,-13.41,-30.67,-30.95,0,*60
1512367288.47,43974,3.44,72590.8,-13.41,-30.11,-29.39,0,*68
1512367289.68,43975,3.44,72602.8,-13.43,-32.39,-35.59,0,*68
1512367290.89,43976,3.44,72576.3,-13.43,-36.07,-36.85,0,*60
1512367292.14,43977,3.44,72526.5,-13.43,-36.43,-35.95,0,*63
1512367293.42,43978,3.44,72510.5,-13.41,-36.43,-34.53,0,*65
1512367294.71,43979,3.44,72512.0,-13.41,-34.35,-33.77,0,*66
1512367295.94,43980,3.44,72492.0,-13.43,-32.91,-32.29,0,*60
1512367297.15,43981,3.44,72482.8,-13.43,-31.05,-31.79,0,*69
1512367298.42,43982,3.44,72514.3,-13.43,-32.07,-33.73,0,*63
1512367299.63,43983,3.44,72512.3,-13.43,-33.21,-35.17,0,*63
1512367300.9,43984,3.44,72542.8,-13.43,-33.73,-32.97,0,*6C
1512367302.12,43985,3.44,72542.3,-13.43,-33.83,-35.59,0,*67
1512367303.36,43986,3.44,72534.3,-13.45,-36.43,-35.59,0,*6B
1512367304.6,43987,3.44,72524.0,-13.45,-35.89,-34.77,0,*62
1512367305.84,43988,3.44,72522.3,-13.43,-33.49,-31.05,0,*61
1512367307.08,43989,3.44,72532.0,-13.43,-31.67,-34.01,0,*6F
1512367308.32,43990,3.44,72538.5,-13.43,-37.45,-38.79,0,*62
1512367309.58,43991,3.44,72542.0,-13.43,-39.41,-39.03,0,*65
1512367310.83,43992,3.44,72542.5,-13.43,-37.87,-37.39,0,*65
1512367312.05,43993,3.44,72526.0,-13.43,-37.45,-36.55,0,*61
1512367313.3,43994,3.44,72534.8,-13.45,-36.43,-35.89,0,*65
1512367314.54,43995,3.44,72544.3,-13.43,-36.07,-35.35,0,*65
1512367315.8,43996,3.44,72554.0,-13.43,-35.35,-34.95,0,*6F
1512367317.01,43997,3.44,72552.0,-13.43,-35.01,-34.41,0,*60
1512367318.27,43998,3.44,72550.0,-13.43,-33.89,-33.89,0,*6A
1512367319.51,43999,3.44,72550.0,-13.43,-33.31,-34.59,0,*62
1512367320.74,44000,3.44,72554.5,-13.43,-34.59,-33.03,0,*6D
1512367322.04,44001,3.44,72556.5,-13.37,-31.95,-30.73,0,*6E
1512367323.31,44002,3.44,72534.0,-13.41,-31.91,-32.69,0,*61
1512367324.55,44003,3.44,72518.0,-13.41,-30.83,-30.11,0,*6F
1512367325.82,44004,3.44,72512.5,-13.41,-28.15,-28.43,0,*60
1512367327.08,44005,3.44,72534.0,-13.37,-27.77,-29.13,0,*6F
1512367328.35,44006,3.44,72514.8,-13.37,-29.39,-29.83,0,*61
1512367329.66,44007,3.44,72516.8,-13.37,-29.39,-30.61,0,*64
1512367330.92,44008,3.44,72536.3,-13.37,-31.29,-34.53,0,*66
1512367332.18,44009,3.44,72522.5,-13.37,-34.71,-35.77,0,*68
1512367333.42,44010,3.44,72522.3,-13.37,-35.13,-35.47,0,*66
1512367334.71,44011,3.44,72532.8,-13.37,-34.53,-35.65,0,*62
1512367336.0,44012,3.44,72542.3,-13.37,-38.23,-38.49,0,*69
1512367337.29,44013,3.44,72526.5,-13.37,-39.29,-38.91,0,*66
1512367338.56,44014,3.44,72524.0,-13.37,-39.47,-38.91,0,*69
1512367339.83,44015,3.44,72520.5,-13.37,-39.47,-38.91,0,*68
1512367341.07,44016,3.44,72522.5,-13.37,-39.85,-39.09,0,*65
1512367342.37,44017,3.44,72540.5,-13.37,-38.91,-38.29,0,*63
1512367343.63,44018,3.44,72538.8,-13.37,-38.61,-38.11,0,*68
1512367344.93,44019,3.44,72548.8,-13.37,-39.03,-38.23,0,*6D
1512367346.18,44020,3.44,72546.3,-13.41,-39.47,-37.75,0,*6A
1512367347.44,44021,3.44,72554.0,-13.37,-36.19,-35.23,0,*6F
1512367348.73,44022,3.44,72536.0,-13.41,-35.83,-36.37,0,*6B
1512367350.02,44023,3.44,72538.5,-13.41,-37.39,-36.49,0,*60
1512367351.3,44024,3.44,72544.3,-13.37,-38.67,-36.37,0,*6B
1512367352.57,44025,3.44,72558.3,-13.37,-37.45,-34.01,0,*62
1512367353.84,44026,3.44,72558.8,-13.41,-35.07,-31.33,0,*60
1512367355.08,44027,3.44,72564.3,-13.37,-32.35,-28.69,0,*61
1512367356.31,44028,3.44,72566.3,-13.37,-30.33,-27.51,0,*6E
1512367357.55,44029,3.44,72574.5,-13.37,-28.97,-25.91,0,*66
1512367358.81,44030,3.44,72574.0,-13.37,-28.15,-25.45,0,*6D
1512367360.05,44031,3.44,72568.5,-13.37,-27.51,-23.79,0,*6A
1512367361.31,44032,3.44,72526.8,-13.37,-25.29,-22.83,0,*60
1512367362.58,44033,3.44,72470.8,-13.37,-23.19,-22.87,0,*60
1512367363.84,44034,3.44,72490.0,-13.37,-22.41,-22.73,0,*60
1512367365.06,44035,3.44,72508.3,-13.35,-22.93,-22.67,0,*69
1512367366.36,44036,3.44,72510.0,-13.37,-23.19,-20.49,0,*65
1512367367.62,44037,3.44,72494.5,-13.37,-21.27,-18.99,0,*6D
1512367368.85,44038,3.44,72478.8,-13.35,-19.99,-18.59,0,*62
1512367370.07,44039,3.44,72506.5,-13.35,-19.51,-18.65,0,*68
1512367371.32,44040,3.44,72520.3,-13.35,-19.27,-18.65,0,*67
1512367372.54,44041,3.44,72510.5,-13.35,-19.51,-19.37,0,*61
1512367373.81,44042,3.44,72508.0,-13.35,-20.15,-19.85,0,*61
1512367375.04,44043,3.44,72478.3,-13.33,-20.29,-19.71,0,*62
1512367376.32,44044,3.44,72516.5,-13.29,-20.15,-19.81,0,*6E
1512367377.57,44045,3.44,72536.3,-13.29,-20.39,-20.09,0,*6B
1512367378.81,44046,3.44,72558.5,-13.29,-19.91,-20.09,0,*60
1512367380.05,44047,3.44,72540.8,-13.29,-20.09,-20.59,0,*6F
1512367381.28,44048,3.44,72528.0,-13.27,-19.81,-21.09,0,*60
1512367382.52,44049,3.44,72574.3,-13.27,-20.29,-21.97,0,*6E
1512367383.76,44050,3.44,72584.5,-13.27,-21.09,-22.31,0,*6A
1512367384.98,44051,3.44,72562.5,-13.27,-22.03,-22.63,0,*65
1512367386.23,44052,3.44,72562.3,-13.25,-23.13,-22.57,0,*63
1512367387.49,44053,3.44,72560.3,-13.25,-23.69,-21.93,0,*64
1512367388.74,44054,3.44,72572.0,-13.25,-22.93,-20.93,0,*66
1512367389.99,44055,3.44,72562.5,-13.25,-21.93,-20.39,0,*64
1512367391.23,44056,3.44,72550.0,-13.25,-21.39,-20.29,0,*66
1512367392.49,44057,3.44,72554.5,-13.23,-20.79,-20.35,0,*69
1512367393.77,44058,3.44,72562.8,-13.23,-20.83,-20.53,0,*63
1512367395.02,44059,3.44,72558.8,-13.23,-21.27,-20.63,0,*6E
1512367396.27,44060,3.44,72564.5,-13.21,-21.73,-20.39,0,*68
1512367397.48,44061,3.44,72564.5,-13.23,-21.73,-19.91,0,*63
1512367398.72,44062,3.44,72550.0,-13.21,-21.43,-19.47,0,*6A
1512367399.96,44063,3.44,72530.5,-13.21,-20.69,-19.17,0,*67
1512367401.22,44064,3.44,72488.3,-13.21,-19.85,-18.83,0,*64
1512367402.45,44065,3.44,72536.5,-13.19,-19.51,-18.59,0,*60
1512367403.68,44066,3.44,72556.0,-13.15,-19.17,-18.69,0,*6E
1512367404.92,44067,3.44,72554.0,-13.15,-19.37,-18.89,0,*63
1512367406.17,44068,3.44,72550.8,-13.19,-19.37,-19.27,0,*65
1512367407.39,44069,3.44,72556.5,-13.15,-18.69,-19.37,0,*63
1512367408.63,44070,3.44,72556.3,-13.15,-18.79,-20.15,0,*60
1512367409.85,44071,3.44,72544.8,-13.15,-19.03,-20.69,0,*66
1512367411.07,44072,3.44,72542.8,-13.15,-19.51,-21.39,0,*66
1512367412.29,44073,3.44,72548.3,-13.15,-19.47,-21.77,0,*6A
1512367413.5,44074,3.44,72546.5,-13.15,-20.73,-23.79,0,*6C
1512367414.72,44075,3.44,72546.8,-13.15,-22.93,-24.93,0,*62
1512367415.99,44076,3.44,72554.3,-13.15,-24.11,-24.25,0,*60
1512367417.21,44077,3.44,72556.0,-13.15,-23.79,-23.43,0,*6F
1512367418.46,44078,3.38,72546.8,-13.15,-23.75,-23.69,0,*64
1512367419.72,44079,3.44,72542.3,-13.15,-23.69,-23.29,0,*6C
1512367420.99,44080,3.44,72572.5,-13.15,-22.77,-22.47,0,*6D
1512367422.24,44081,3.44,72562.5,-13.13,-23.09,-26.23,0,*64
1512367423.5,44082,3.44,72542.3,-13.13,-25.91,-30.05,0,*63
1512367424.75,44083,3.44,72554.5,-13.15,-28.25,-30.45,0,*62
1512367426.0,44084,3.44,72558.5,-13.15,-30.61,-30.83,0,*66
1512367427.24,44085,3.44,72538.3,-13.13,-29.45,-26.49,0,*6E
1512367428.51,44086,3.44,72504.0,-13.13,-26.55,-25.35,0,*6B
1512367429.79,44087,3.44,72556.3,-13.13,-26.17,-25.65,0,*69
1512367431.03,44088,3.44,72570.0,-13.13,-26.49,-25.19,0,*66
1512367432.3,44089,3.44,72564.8,-13.13,-26.33,-23.79,0,*6A
1512367433.55,44090,3.44,72544.5,-13.13,-25.35,-22.93,0,*62
1512367434.79,44091,3.44,72496.0,-13.13,-24.05,-22.27,0,*6E
1512367436.04,44092,3.44,72498.3,-13.11,-22.11,-21.83,0,*61
1512367437.31,44093,3.44,72480.8,-13.11,-21.27,-21.33,0,*6D
1512367438.54,44094,3.44,72488.0,-13.07,-20.29,-20.79,0,*6D
1512367439.8,44095,3.44,72530.3,-13.07,-20.79,-22.31,0,*67
1512367441.04,44096,3.44,72558.3,-13.07,-21.57,-22.57,0,*69
1512367442.31,44097,3.44,72558.5,-13.11,-21.97,-21.57,0,*60
1512367443.55,44098,3.44,72540.5,-13.11,-21.73,-21.03,0,*64
1512367444.78,44099,3.44,72558.0,-13.11,-21.17,-20.73,0,*61
1512367446.05,44100,3.44,72558.5,-13.07,-21.27,-21.27,0,*64
1512367447.29,44101,3.44,72570.8,-13.07,-21.57,-22.07,0,*63
1512367448.56,44102,3.44,72536.8,-13.11,-23.03,-23.85,0,*6F
1512367449.82,44103,3.44,72512.5,-13.07,-24.15,-23.69,0,*6B
1512367451.05,44104,3.44,72526.0,-13.03,-23.39,-23.53,0,*68
1512367452.29,44105,3.44,72480.5,-13.03,-23.13,-23.53,0,*61
1512367453.51,44106,3.44,72516.8,-13.03,-23.43,-23.89,0,*60
1512367454.73,44107,3.44,72514.8,-13.03,-23.75,-24.05,0,*67
1512367456.0,44108,3.44,72536.5,-13.01,-24.77,-24.87,0,*65
1512367457.23,44109,3.44,72528.0,-13.01,-24.93,-24.05,0,*64
1512367458.48,44110,3.44,72544.0,-13.03,-24.25,-22.93,0,*6A
1512367459.75,44111,3.44,72540.8,-13.01,-22.77,-21.09,0,*68
1512367461.05,44112,3.44,72538.5,-13.01,-21.67,-20.53,0,*67
1512367462.29,44113,3.44,72546.0,-12.99,-21.09,-19.99,0,*62
1512367463.55,44114,3.44,72548.5,-12.99,-20.79,-19.17,0,*65
1512367464.79,44115,3.44,72554.3,-12.99,-19.47,-18.45,0,*65
1512367466.05,44116,3.44,72532.5,-12.99,-18.89,-19.03,0,*66
1512367467.33,44117,3.44,72504.8,-12.97,-19.27,-19.27,0,*6A
1512367468.58,44118,3.44,72512.8,-12.97,-19.91,-19.61,0,*6A
1512367469.85,44119,3.44,72536.5,-12.97,-19.65,-19.27,0,*62
1512367471.09,44120,3.44,72550.5,-12.97,-19.47,-19.27,0,*68
1512367472.33,44121,3.44,72542.3,-12.97,-19.47,-18.55,0,*6D
1512367473.6,44122,3.44,72552.0,-12.95,-19.13,-18.11,0,*6D
1512367474.87,44123,3.44,72528.0,-12.95,-18.49,-17.63,0,*68
1512367476.11,44124,3.44,72536.5,-12.91,-18.21,-17.73,0,*64
1512367477.38,44125,3.44,72532.5,-12.95,-17.93,-18.11,0,*6C
1512367478.62,44126,3.44,72536.3,-12.91,-18.49,-18.99,0,*63
1512367479.87,44127,3.44,72520.3,-12.91,-19.37,-19.75,0,*69
1512367481.11,44128,3.44,72532.0,-12.91,-19.91,-19.91,0,*60
1512367482.38,44129,3.44,72542.5,-12.91,-20.35,-20.43,0,*60
1512367483.67,44130,3.44,72530.8,-12.91,-20.83,-19.61,0,*6F
1512367484.9,44131,3.44,72534.3,-12.89,-19.81,-18.17,0,*6F
1512367486.17,44132,3.44,72536.3,-12.89,-18.31,-17.21,0,*6C
1512367487.41,44133,3.44,72544.0,-12.89,-17.41,-16.97,0,*69
1512367488.66,44134,3.44,72536.8,-12.87,-17.49,-17.35,0,*61
1512367489.9,44135,3.44,72522.8,-12.85,-17.21,-18.25,0,*62
1512367491.15,44136,3.44,72538.8,-12.87,-18.79,-20.25,0,*6A
1512367492.36,44137,3.44,72538.0,-12.85,-20.05,-19.17,0,*62
1512367493.58,44138,3.44,72536.8,-12.85,-18.73,-18.11,0,*60
1512367494.82,44139,3.44,72532.8,-12.81,-18.21,-17.45,0,*6C
1512367496.06,44140,3.44,72542.5,-12.85,-17.63,-16.79,0,*61
1512367497.3,44141,3.44,72522.3,-12.81,-17.25,-16.59,0,*64
1512367498.52,44142,3.44,72534.8,-12.81,-16.55,-15.99,0,*6E
1512367499.82,44143,3.44,72530.3,-12.79,-16.13,-15.85,0,*67
1512367501.09,44144,3.44,72530.0,-12.79,-16.23,-16.59,0,*61
1512367502.39,44145,3.44,72532.5,-12.79,-17.03,-17.59,0,*62
1512367503.68,44146,3.44,72522.3,-12.79,-18.01,-17.59,0,*6C
1512367504.93,44147,3.44,72532.5,-12.79,-18.41,-17.87,0,*6A
1512367506.2,44148,3.44,72530.5,-12.75,-18.73,-18.35,0,*6E
1512367507.44,44149,3.44,72512.0,-12.77,-18.93,-18.69,0,*6A
1512367508.71,44150,3.44,72494.5,-12.77,-19.27,-18.93,0,*69
1512367509.98,44151,3.44,72514.8,-12.75,-19.81,-18.89,0,*6D
1512367511.23,44152,3.44,72530.5,-12.77,-19.37,-18.01,0,*61
1512367512.49,44153,3.44,72514.0,-12.75,-18.45,-17.45,0,*69
1512367513.73,44154,3.44,72508.0,-12.75,-18.11,-17.69,0,*61
1512367514.95,44155,3.44,72534.5,-12.73,-18.11,-18.11,0,*66
1512367516.18,44156,3.44,72534.3,-12.75,-18.79,-19.03,0,*6F
1512367517.41,44157,3.44,72518.3,-12.73,-19.41,-19.71,0,*67
1512367518.66,44158,3.44,72530.8,-12.73,-19.37,-19.57,0,*6D
1512367519.91,44159,3.44,72536.8,-12.73,-19.51,-19.41,0,*6B
1512367521.12,44160,3.44,72558.0,-12.73,-19.99,-18.73,0,*65
1512367522.37,44161,3.44,72554.0,-12.69,-19.81,-17.93,0,*67
1512367523.61,44162,3.44,72548.5,-12.73,-18.65,-17.59,0,*62
1512367524.83,44163,3.44,72544.5,-12.73,-18.49,-17.87,0,*6E
1512367526.04,44164,3.44,72518.5,-12.73,-19.03,-18.11,0,*66
1512367527.31,44165,3.44,72522.0,-12.73,-18.59,-17.97,0,*68
1512367528.52,44166,3.44,72536.5,-12.73,-18.45,-18.45,0,*66
1512367529.75,44167,3.44,72514.3,-12.69,-18.89,-18.83,0,*66
1512367530.96,44168,3.44,72520.0,-12.69,-19.17,-18.99,0,*64
1512367532.2,44169,3.44,72532.8,-12.73,-19.31,-19.17,0,*6D
1512367533.42,44170,3.44,72542.0,-12.69,-19.13,-18.99,0,*69
1512367534.66,44171,3.44,72554.5,-12.69,-19.03,-18.89,0,*68
1512367535.87,44172,3.44,72504.0,-12.69,-18.41,-18.83,0,*66
1512367537.11,44173,3.44,72518.8,-12.69,-19.03,-19.65,0,*69
1512367538.35,44174,3.44,72534.0,-12.67,-19.65,-20.09,0,*60
1512367539.62,44175,3.44,72556.5,-12.69,-20.19,-20.99,0,*67
1512367540.89,44176,3.44,72554.5,-12.67,-21.53,-21.53,0,*62
1512367542.14,44177,3.44,72560.3,-12.67,-21.67,-20.29,0,*68
1512367543.38,44178,3.44,72574.8,-12.69,-20.99,-21.39,0,*69
1512367544.62,44179,3.44,72566.8,-12.69,-22.73,-21.77,0,*64
1512367545.84,44180,3.44,72562.0,-12.67,-21.93,-21.17,0,*67
1512367547.12,44181,3.44,72550.0,-12.67,-21.53,-21.97,0,*62
1512367548.34,44182,3.44,72546.5,-12.67,-22.57,-23.39,0,*60
1512367549.6,44183,3.44,72558.0,-12.67,-23.69,-23.99,0,*67
1512367550.86,44184,3.44,72544.5,-12.67,-23.99,-23.29,0,*64
1512367552.08,44185,3.44,72548.5,-12.69,-23.59,-23.59,0,*60
1512367553.34,44186,3.44,72560.5,-12.69,-23.69,-24.21,0,*68
1512367554.61,44187,3.44,72552.0,-12.69,-24.41,-24.83,0,*6C
1512367555.82,44188,3.44,72554.0,-12.69,-24.97,-25.19,0,*6A
1512367557.07,44189,3.44,72550.5,-12.69,-25.87,-25.71,0,*65
1512367558.34,44190,3.44,72544.5,-12.69,-26.33,-24.87,0,*69
1512367559.6,44191,3.44,72558.3,-12.69,-25.29,-23.99,0,*68
1512367560.82,44192,3.44,72554.8,-12.69,-24.51,-24.51,0,*66
1512367562.06,44193,3.44,72562.8,-12.69,-25.39,-26.13,0,*6C
1512367563.32,44194,3.44,72564.5,-12.73,-26.71,-26.93,0,*67
1512367564.54,44195,3.44,72560.8,-12.69,-27.67,-28.31,0,*6D
1512367565.79,44196,3.44,72570.3,-12.73,-28.53,-28.59,0,*63
1512367567.02,44197,3.44,72552.3,-12.73,-28.97,-28.79,0,*68
1512367568.26,44198,3.44,72558.3,-12.73,-29.57,-28.47,0,*67
1512367569.47,44199,3.44,72576.5,-12.73,-28.97,-26.87,0,*69
1512367570.7,44200,3.44,72576.8,-12.73,-27.39,-25.91,0,*65
1512367571.97,44201,3.44,72560.5,-12.73,-26.17,-24.87,0,*6F
1512367573.23,44202,3.44,72538.8,-12.75,-23.23,-23.13,0,*62
1512367574.52,44203,3.44,72540.8,-12.75,-22.77,-23.49,0,*6C
1512367575.79,44204,3.44,72556.8,-12.75,-24.61,-25.03,0,*62
1512367577.03,44205,3.44,72572.5,-12.73,-24.87,-25.09,0,*67
1512367578.24,44206,3.44,72586.3,-12.73,-26.39,-26.23,0,*68
1512367579.51,44207,3.44,72590.8,-12.75,-26.77,-25.87,0,*68
1512367580.75,44208,3.44,72564.0,-12.75,-24.61,-23.75,0,*69
1512367581.99,44209,3.44,72558.8,-12.75,-23.13,-22.63,0,*6C
1512367583.22,44210,3.44,72574.5,-12.77,-23.33,-23.39,0,*6A
1512367584.49,44211,3.44,72574.0,-12.75,-23.65,-23.09,0,*69
1512367585.75,44212,3.44,72570.0,-12.75,-22.31,-22.27,0,*67
1512367586.97,44213,3.44,72554.8,-12.77,-21.93,-22.83,0,*61
1512367588.23,44214,3.44,72548.8,-12.75,-22.47,-23.59,0,*68
1512367589.46,44215,3.44,72566.8,-12.77,-23.39,-23.53,0,*69
1512367590.71,44216,3.44,72558.3,-12.75,-24.57,-25.09,0,*6E
1512367591.97,44217,3.44,72566.5,-12.75,-25.75,-25.35,0,*61
1512367593.24,44218,3.44,72564.0,-12.75,-26.03,-23.49,0,*61
1512367594.48,44219,3.44,72558.8,-12.75,-23.79,-22.53,0,*62
1512367595.74,44220,3.44,72556.3,-12.77,-23.65,-23.65,0,*63
1512367596.99,44221,3.44,72558.3,-12.77,-24.25,-24.61,0,*62
1512367598.26,44222,3.44,72546.5,-12.75,-24.41,-24.61,0,*61
1512367599.47,44223,3.44,72548.5,-12.77,-25.13,-26.61,0,*66
1512367600.69,44224,3.44,72538.8,-12.77,-27.29,-27.67,0,*6D
1512367601.99,44225,3.44,72546.8,-12.75,-27.61,-28.21,0,*6F
1512367603.24,44226,3.44,72570.5,-12.77,-29.51,-28.85,0,*6D
1512367604.51,44227,3.44,72570.0,-12.77,-29.51,-27.39,0,*64
1512367605.72,44228,3.44,72568.5,-12.77,-27.55,-25.23,0,*68
1512367606.94,44229,3.44,72566.5,-12.77,-25.65,-25.13,0,*6B
1512367608.14,44230,3.44,72576.5,-12.77,-26.23,-26.45,0,*62
1512367609.38,44231,3.44,72572.0,-12.77,-25.65,-25.75,0,*62
1512367610.65,44232,3.44,72546.8,-12.79,-26.55,-25.65,0,*6E
1512367611.92,44233,3.44,72522.3,-12.79,-25.49,-23.33,0,*64
1512367613.19,44234,3.44,72486.8,-12.79,-23.19,-21.63,0,*67
1512367614.43,44235,3.44,72520.8,-12.79,-21.13,-21.13,0,*69
1512367615.69,44236,3.44,72510.8,-12.81,-21.27,-21.57,0,*6A
1512367616.93,44237,3.44,72566.5,-12.79,-22.07,-22.03,0,*6F
1512367618.17,44238,3.44,72568.5,-12.79,-22.53,-22.87,0,*6D
1512367619.45,44239,3.44,72576.3,-12.79,-24.25,-23.13,0,*67
1512367620.72,44240,3.44,72562.0,-12.79,-24.67,-22.57,0,*6E
1512367622.01,44241,3.44,72552.5,-12.79,-23.85,-21.27,0,*60
1512367623.26,44242,3.44,72528.8,-12.79,-21.77,-19.99,0,*62
1512367624.47,44243,3.44,72544.3,-12.81,-21.09,-20.29,0,*6C
1512367625.69,44244,3.44,72564.8,-12.81,-20.69,-20.05,0,*62
1512367626.94,44245,3.44,72554.8,-12.81,-20.15,-19.85,0,*6A
1512367628.18,44246,3.44,72548.5,-12.81,-20.35,-20.05,0,*69
1512367629.43,44247,3.44,72554.0,-12.79,-20.05,-20.15,0,*6D
1512367630.67,44248,3.44,72546.5,-12.81,-20.35,-21.13,0,*61
1512367631.93,44249,3.44,72520.3,-12.79,-20.29,-20.53,0,*6F
1512367633.22,44250,3.44,72490.0,-12.79,-20.53,-20.83,0,*67
1512367634.49,44251,3.44,72524.0,-12.79,-21.27,-21.43,0,*69
1512367635.73,44252,3.44,72562.8,-12.79,-21.93,-21.09,0,*6B
1512367636.97,44253,3.44,72550.5,-12.81,-21.13,-20.49,0,*60
1512367638.24,44254,3.44,72568.3,-12.79,-21.09,-20.99,0,*66
1512367639.48,44255,3.44,72548.3,-12.79,-21.47,-21.43,0,*6B
1512367640.7,44256,3.44,72544.8,-12.77,-21.77,-21.93,0,*68
1512367641.94,44257,3.44,72556.5,-12.81,-22.17,-22.37,0,*68
1512367643.17,44258,3.44,72558.0,-12.81,-22.67,-24.11,0,*62
1512367644.44,44259,3.44,72564.3,-12.79,-25.39,-26.77,0,*6A
1512367645.71,44260,3.44,72538.5,-12.79,-27.39,-28.15,0,*68
1512367646.98,44261,3.44,72530.5,-12.79,-29.67,-29.01,0,*68
1512367648.27,44262,3.44,72514.3,-12.79,-30.01,-28.25,0,*64
1512367649.55,44263,3.44,72532.5,-12.81,-29.01,-25.75,0,*62
1512367650.81,44264,3.44,72520.0,-12.81,-25.75,-23.33,0,*6E
1512367652.08,44265,3.44,72530.8,-12.79,-23.79,-23.29,0,*69
1512367653.34,44266,3.44,72542.3,-12.79,-23.65,-23.79,0,*62
1512367654.61,44267,3.44,72536.0,-12.79,-24.11,-24.77,0,*6E
1512367655.85,44268,3.44,72518.0,-12.79,-24.77,-25.91,0,*68
1512367657.09,44269,3.44,72536.0,-12.81,-25.81,-26.61,0,*6A
1512367658.33,44270,3.44,72536.8,-12.79,-26.61,-26.65,0,*6C
1512367659.6,44271,3.44,72558.8,-12.81,-26.55,-26.13,0,*6C
1512367660.84,44272,3.44,72548.5,-12.79,-26.39,-26.23,0,*61
1512367662.08,44273,3.44,72554.5,-12.81,-26.13,-26.65,0,*6D
1512367663.35,44274,3.44,72520.8,-12.81,-26.81,-26.77,0,*62
1512367664.62,44275,3.44,72496.5,-12.79,-26.61,-25.97,0,*67
1512367665.86,44276,3.44,72526.3,-12.81,-26.23,-25.97,0,*65
1512367667.1,44277,3.44,72550.3,-12.81,-26.29,-26.23,0,*62
1512367668.36,44278,3.44,72534.8,-12.85,-26.13,-26.71,0,*67
1512367669.58,44279,3.44,72552.3,-12.85,-26.61,-27.29,0,*6F
1512367670.82,44280,3.44,72554.8,-12.85,-28.31,-27.83,0,*62
1512367672.06,44281,3.44,72562.3,-12.85,-28.15,-26.33,0,*6F
1512367673.3,44282,3.44,72540.5,-12.85,-26.29,-24.97,0,*61
1512367674.51,44283,3.44,72540.0,-12.85,-25.19,-24.97,0,*60
1512367675.78,44284,3.44,72554.3,-12.87,-25.09,-25.71,0,*6D
1512367677.03,44285,3.44,72552.5,-12.87,-26.07,-26.87,0,*6B
1512367678.3,44286,3.44,72556.5,-12.87,-27.67,-27.39,0,*6B
1512367679.54,44287,3.44,72566.8,-12.85,-27.67,-27.19,0,*6A
1512367680.8,44288,3.44,72560.5,-12.87,-27.35,-27.07,0,*6F
1512367682.09,44289,3.44,72542.8,-12.87,-27.19,-27.19,0,*6F
1512367683.36,44290,3.44,72544.3,-12.87,-27.23,-27.67,0,*67
1512367684.63,44291,3.5,72540.0,-12.87,-27.93,-27.39,0,*66
1512367685.9,44292,3.44,72524.3,-12.87,-27.77,-27.35,0,*63
1512367687.16,44293,3.44,72534.5,-12.87,-27.71,-28.09,0,*64
1512367688.46,44294,3.44,72566.3,-12.87,-28.05,-28.43,0,*61
1512367689.72,44295,3.44,72560.3,-12.87,-28.79,-29.07,0,*6A
1512367690.98,44296,3.44,72536.5,-12.87,-29.07,-29.13,0,*64
1512367692.28,44297,3.44,72532.8,-12.87,-28.91,-28.43,0,*6F
1512367693.5,44298,3.44,72548.8,-12.89,-27.89,-27.67,0,*61
1512367694.76,44299,3.44,72532.8,-12.89,-27.39,-27.19,0,*62
1512367696.0,44300,3.44,72538.0,-12.89,-26.93,-27.07,0,*6D
1512367697.24,44301,3.44,72544.0,-12.89,-27.07,-27.23,0,*66
1512367698.51,44302,3.44,72538.3,-12.91,-27.13,-26.55,0,*69
1512367699.75,44303,3.44,72516.3,-12.89,-26.49,-26.33,0,*6F